Ireland West Airport Knock, Ireland

1:02 AM IST on July 26, 2017 (GMT +0100)
Connaught

Weather History for EIKN - January, 2014

Change the Weather History Date:

Friday, January 17, 2014

  Actual Average Record
Temperature  
Mean Temperature 40 °F -  
Max Temperature 44 °F - - ()
Min Temperature 37 °F - - ()
Degree Days  
Heating Degree Days 24    
Moisture  
Dew Point 39 °F    
Average Humidity 95    
Maximum Humidity 100    
Minimum Humidity 80    
Precipitation  
Precipitation 0.08 in - - ()
Sea Level Pressure  
Sea Level Pressure 29.05 in    
Wind  
Wind Speed 5 mph ()    
Max Wind Speed 9 mph    
Max Gust Speed -    
Visibility 8.1 miles    
Events      
T = Trace of Precipitation, MM = Missing Value Source: Averaged Metar Reports

Daily Weather History Graph

Daily Weather History Graph

Search for Another Location

Airport or City:

Trip Planner

Search our weather history database for the weather conditions in past years. The results will help you decide how hot, cold, wet, or windy it might be!

Date:

Astronomy

Jan. 17, 2014 Rise Set
Actual Time 8:43 AM GMT 4:47 PM GMT
Civil Twilight 8:02 AM GMT 5:29 PM GMT
Nautical Twilight 7:17 AM GMT 6:13 PM GMT
Astronomical Twilight 6:35 AM GMT 6:55 PM GMT
Moon 6:43 PM GMT (1/17) 8:44 AM GMT (1/17)
Length of Visible Light 9h 26m
Length of Day
8h 04m
Full, 99% of the Moon is Illuminated
Jan 17
Full
Jan 24
Last Quarter
Jan 30
New
Feb 6
First Quarter
Feb 14
Full

Hourly Weather History & Observations

Time (GMT) Temp. Windchill Dew Point Humidity Pressure Visibility Wind Dir Wind Speed Gust Speed Precip Events Conditions
12:00 AM 39 °F - 39 °F 100% 28.97 in - West 6.7 mph - -  
1:00 AM 39 °F - 39 °F 99% 28.98 in - WNW 6.7 mph - -  
2:00 AM 38 °F - 38 °F 100% 28.99 in - West 6.7 mph - -  
3:00 AM 39 °F - 38 °F 95% 29.00 in - WNW 6.7 mph - -  
4:00 AM 39 °F - 38 °F 96% 29.01 in - West 6.7 mph - -  
5:00 AM 39 °F - 38 °F 93% 29.02 in - West 4.5 mph - -  
6:00 AM 38 °F - 38 °F 98% 29.02 in 11 mi WSW 4.5 mph - -   Partly Cloudy
6:00 AM 37.4 °F 33.8 °F 37.4 °F 100% 28.97 in 6.2 mi WSW 4.6 mph - N/A   Mostly Cloudy
7:00 AM 38 °F - 37 °F 94% 29.03 in 11 mi WSW 6.7 mph - -   Mostly Cloudy
7:00 AM 37.4 °F 32.8 °F 37.4 °F 100% 29.00 in 6.2 mi WSW 5.8 mph - N/A   Mostly Cloudy
7:30 AM 37.4 °F 33.8 °F 37.4 °F 100% 29.00 in 6.2 mi SW 4.6 mph - N/A   Mostly Cloudy
8:00 AM 38 °F - 38 °F 99% 29.05 in 2 mi SW 4.5 mph - -   Mist
8:00 AM 37.4 °F 33.8 °F 37.4 °F 100% 29.00 in 2.5 mi SW 4.6 mph - N/A   Mostly Cloudy
8:30 AM 37.4 °F 33.8 °F 37.4 °F 100% 29.03 in 6.2 mi WSW 4.6 mph - N/A   Mostly Cloudy
9:00 AM 37 °F - 37 °F 99% 29.07 in 19 mi WSW 6.7 mph - -   Mostly Cloudy
9:00 AM 37.4 °F 32.8 °F 37.4 °F 100% 29.03 in 6.2 mi WSW 5.8 mph - N/A   Mostly Cloudy
9:30 AM 37.4 °F 32.1 °F 37.4 °F 100% 29.03 in 6.2 mi SW 6.9 mph - N/A   Mostly Cloudy
10:00 AM 38 °F - 38 °F 100% 29.07 in 25 mi SW 6.7 mph - -   Mostly Cloudy
10:00 AM 39.2 °F 35.0 °F 37.4 °F 93% 29.03 in 6.2 mi SW 5.8 mph - N/A   Mostly Cloudy
10:30 AM 41.0 °F 36.4 °F 39.2 °F 93% 29.03 in 6.2 mi WSW 6.9 mph - N/A   Mostly Cloudy
11:00 AM 41 °F - 40 °F 93% 29.08 in 22 mi SW 6.7 mph - -   Mostly Cloudy
11:00 AM 41.0 °F 37.1 °F 39.2 °F 93% 29.03 in 6.2 mi SW 5.8 mph - N/A   Mostly Cloudy
11:30 AM 41.0 °F 37.1 °F 39.2 °F 93% 29.06 in 6.2 mi SW 5.8 mph - N/A   Mostly Cloudy
12:00 PM 41 °F - 39 °F 92% 29.08 in 22 mi SW 6.7 mph - -   Mostly Cloudy
12:00 PM 41.0 °F 36.4 °F 39.2 °F 93% 29.06 in 6.2 mi SW 6.9 mph - N/A   Mostly Cloudy
12:30 PM 42.8 °F 39.3 °F 39.2 °F 87% 29.06 in 6.2 mi SW 5.8 mph - N/A   Mostly Cloudy
1:00 PM 44 °F - 41 °F 83% 29.07 in 19 mi SW 4.5 mph - -   Mostly Cloudy
1:00 PM 42.8 °F 40.1 °F 41.0 °F 93% 29.03 in 6.2 mi SW 4.6 mph - N/A   Mostly Cloudy
1:30 PM 44.6 °F 40.2 °F 39.2 °F 81% 29.03 in 6.2 mi WSW 8.1 mph - N/A   Scattered Clouds
2:00 PM 44 °F - 40 °F 80% 29.07 in 19 mi SW 6.7 mph - -   Scattered Clouds
2:00 PM 44.6 °F 41.4 °F 39.2 °F 81% 29.03 in 6.2 mi SW 5.8 mph - N/A   Mostly Cloudy
2:30 PM 44.6 °F 42.2 °F 41.0 °F 87% 29.03 in 6.2 mi SW 4.6 mph - N/A   Mostly Cloudy
3:00 PM 43 °F - 40 °F 85% 29.08 in 19 mi SSW 4.5 mph - -   Scattered Clouds
3:00 PM 42.8 °F 40.1 °F 39.2 °F 87% 29.06 in 6.2 mi SSW 4.6 mph - N/A   Mostly Cloudy
3:30 PM 42.8 °F 39.3 °F 39.2 °F 87% 29.06 in 6.2 mi SSW 5.8 mph - N/A   Mostly Cloudy
4:00 PM 41 °F - 40 °F 94% 29.09 in 25 mi South 4.5 mph - -   Scattered Clouds
4:00 PM 41.0 °F 39.0 °F 39.2 °F 93% 29.06 in 6.2 mi South 3.5 mph - N/A   Mostly Cloudy
4:30 PM 39.2 °F 37.0 °F 39.2 °F 100% 29.06 in 6.2 mi SSE 3.5 mph - N/A   Mostly Cloudy
5:00 PM 40 °F - 39 °F 96% 29.10 in 25 mi South 4.5 mph - -   Partly Cloudy
5:00 PM 41.0 °F 38.0 °F 39.2 °F 93% 29.06 in 6.2 mi South 4.6 mph - N/A   Mostly Cloudy
5:30 PM 39.2 °F 34.2 °F 39.2 °F 100% 29.06 in 6.2 mi South 6.9 mph - N/A   Mostly Cloudy
6:00 PM 39 °F - 38 °F 97% 29.10 in 22 mi South 6.7 mph - -   Partly Cloudy
6:00 PM 39.2 °F 35.0 °F 39.2 °F 100% 29.06 in 6.2 mi South 5.8 mph - N/A   Mostly Cloudy
6:30 PM 41.0 °F 36.4 °F 39.2 °F 93% 29.06 in 6.2 mi SSW 6.9 mph - N/A   Mostly Cloudy
7:00 PM 40 °F - 40 °F 100% 29.11 in 19 mi SSW 6.7 mph - -   Overcast
7:00 PM 41.0 °F 36.4 °F 39.2 °F 93% 29.06 in 6.2 mi SSW 6.9 mph - N/A   Mostly Cloudy
8:00 PM 40 °F - 40 °F 98% 29.12 in - SSW 4.5 mph - -  
9:00 PM 39 °F - 39 °F 99% 29.12 in - SSW 4.5 mph - -  
10:00 PM 39 °F - 39 °F 98% 29.13 in - SW 8.9 mph - -  
11:00 PM 38 °F - 38 °F 99% 29.15 in - SSW 4.5 mph - -